GOK RJFU-RJCC

Flight info

Callsign GOK
Flight time N/A
Altitude 39000
Route OOITA Y45 MIHOU Y14 GOLDO Y19 MRE Y13 SIRAO Y139 NAVER
Aircraft CL60/M-SBDE1E2E3FGHIJ1J4J5J7M3RWXYZ/LB1V1D1

Departure

Time 2026-04-29 22:19
Airport Nagasaki Airport (RJFU)

Arrival

Time N/A
Airport New Chitose Airport (RJCC)
Time Latitude Longitude Altitude Speed Heading
2026-04-29 22:05 32.91867 129.91646 3 ft 0 kts 318°
2026-04-29 22:14 32.91869 129.91644 3 ft 1 kts 318°
2026-04-29 22:14 32.91882 129.91625 3 ft 4 kts 263°
2026-04-29 22:15 32.91857 129.91585 2 ft 8 kts 228°
2026-04-29 22:15 32.91824 129.91542 1 ft 0 kts 227°
2026-04-29 22:15 32.91821 129.91538 1 ft 2 kts 228°
2026-04-29 22:15 32.91794 129.91518 1 ft 6 kts 162°
2026-04-29 22:16 32.91752 129.91560 1 ft 9 kts 137°
2026-04-29 22:16 32.91696 129.91623 1 ft 12 kts 136°
2026-04-29 22:16 32.91628 129.91701 2 ft 14 kts 137°
2026-04-29 22:16 32.91548 129.91788 3 ft 16 kts 138°
2026-04-29 22:17 32.91458 129.91885 4 ft 18 kts 137°
2026-04-29 22:17 32.91356 129.91995 6 ft 20 kts 138°
2026-04-29 22:17 32.91247 129.92116 7 ft 22 kts 135°
2026-04-29 22:17 32.91125 129.92238 9 ft 23 kts 144°
2026-04-29 22:18 32.91047 129.92252 9 ft 9 kts 220°
2026-04-29 22:18 32.90997 129.92184 9 ft 12 kts 232°
2026-04-29 22:18 32.90988 129.92090 8 ft 13 kts 323°
2026-04-29 22:18 32.91076 129.92007 6 ft 22 kts 317°
2026-04-29 22:19 32.91368 129.91698 0 ft 98 kts 319°
2026-04-29 22:19 32.92054 129.90932 267 ft 154 kts 320°
2026-04-29 22:19 32.92804 129.90013 1191 ft 160 kts 315°
2026-04-29 22:19 32.93550 129.89078 2165 ft 169 kts 320°
2026-04-29 22:20 32.94603 129.87994 2427 ft 227 kts 321°
2026-04-29 22:20 32.95908 129.86670 3255 ft 258 kts 320°
2026-04-29 22:20 32.97286 129.85257 4446 ft 270 kts 319°
2026-04-29 22:20 32.98700 129.83772 5798 ft 273 kts 318°
2026-04-29 22:21 33.00271 129.82546 7012 ft 284 kts 333°
2026-04-29 22:21 33.02252 129.81937 7654 ft 293 kts 357°
2026-04-29 22:21 33.04219 129.82344 7891 ft 300 kts 25°
2026-04-29 22:21 33.05912 129.83928 8356 ft 321 kts 48°
2026-04-29 22:22 33.07418 129.85942 9485 ft 329 kts 48°
2026-04-29 22:22 33.08904 129.87901 11120 ft 317 kts 46°
2026-04-29 22:22 33.10334 129.89786 12284 ft 320 kts 46°
2026-04-29 22:22 33.11187 129.90907 12925 ft 321 kts 44°
2026-04-29 22:23 33.14222 129.98251 15818 ft 336 kts 96°
2026-04-29 22:23 33.13729 130.01176 16808 ft 328 kts 120°
2026-04-29 22:24 33.12582 130.03511 17565 ft 326 kts 132°
2026-04-29 22:24 33.11313 130.05747 18438 ft 328 kts 132°
2026-04-29 22:24 33.10049 130.07989 19203 ft 332 kts 132°
2026-04-29 22:24 33.08787 130.10226 19899 ft 337 kts 132°
2026-04-29 22:25 33.07569 130.12387 20554 ft 341 kts 132°
2026-04-29 22:25 33.06268 130.14694 21281 ft 344 kts 132°
2026-04-29 22:25 33.04907 130.17107 21970 ft 347 kts 133°
2026-04-29 22:25 33.03619 130.19388 22589 ft 350 kts 133°
2026-04-29 22:26 33.02291 130.21738 23175 ft 355 kts 133°
2026-04-29 22:26 33.00972 130.24069 23746 ft 360 kts 133°
2026-04-29 22:26 32.99735 130.26311 24432 ft 363 kts 129°
2026-04-29 22:26 32.98709 130.29106 25027 ft 380 kts 113°
2026-04-29 22:27 32.98328 130.32274 25635 ft 397 kts 95°
2026-04-29 22:27 32.98709 130.35590 26226 ft 408 kts 82°
2026-04-29 22:27 32.99317 130.38947 26381 ft 427 kts 82°
2026-04-29 22:27 32.99943 130.42465 26391 ft 449 kts 82°
2026-04-29 22:28 33.00603 130.46175 26396 ft 469 kts 81°
2026-04-29 22:28 33.01299 130.50084 26539 ft 484 kts 81°
2026-04-29 22:28 33.02000 130.54022 26895 ft 491 kts 81°
2026-04-29 22:28 33.02716 130.58052 27448 ft 493 kts 81°
2026-04-29 22:29 33.03430 130.62071 27984 ft 495 kts 81°
2026-04-29 22:29 33.04140 130.66084 28412 ft 500 kts 82°
2026-04-29 22:29 33.04862 130.70172 28834 ft 503 kts 82°
2026-04-29 22:29 33.05577 130.74236 29460 ft 501 kts 82°
2026-04-29 22:30 33.06292 130.78310 29898 ft 504 kts 82°
2026-04-29 22:30 33.07019 130.82454 30296 ft 507 kts 82°
2026-04-29 22:30 33.07748 130.86632 30624 ft 512 kts 82°
2026-04-29 22:30 33.08476 130.90810 30849 ft 518 kts 82°
2026-04-29 22:31 33.09208 130.95021 31174 ft 521 kts 82°
2026-04-29 22:31 33.09948 130.99286 31442 ft 525 kts 82°
2026-04-29 22:31 33.10698 131.03619 31637 ft 531 kts 81°
2026-04-29 22:31 33.11441 131.07919 31958 ft 533 kts 82°
2026-04-29 22:32 33.12191 131.12276 32319 ft 534 kts 82°
2026-04-29 22:32 33.12937 131.16614 32607 ft 536 kts 82°
2026-04-29 22:32 33.13683 131.20970 32963 ft 536 kts 82°
2026-04-29 22:32 33.14432 131.25343 33403 ft 535 kts 82°
2026-04-29 22:33 33.15164 131.29627 33826 ft 534 kts 82°
2026-04-29 22:33 33.15907 131.34003 34202 ft 534 kts 82°
2026-04-29 22:33 33.16644 131.38324 34617 ft 533 kts 82°
2026-04-29 22:33 33.17382 131.42668 34994 ft 533 kts 82°
2026-04-29 22:34 33.18111 131.46971 35385 ft 532 kts 82°
2026-04-29 22:34 33.18935 131.51352 35712 ft 534 kts 77°
2026-04-29 22:34 33.20090 131.55576 35981 ft 537 kts 70°
2026-04-29 22:34 33.21630 131.59656 36356 ft 537 kts 62°
2026-04-29 22:35 33.23515 131.63510 36636 ft 538 kts 55°
2026-04-29 22:35 33.25719 131.67093 36856 ft 537 kts 48°
2026-04-29 22:35 33.28250 131.70404 37079 ft 536 kts 41°
2026-04-29 22:35 33.31011 131.73318 37287 ft 533 kts 33°
2026-04-29 22:36 33.34048 131.75890 37544 ft 527 kts 27°
2026-04-29 22:36 33.37238 131.78032 37741 ft 522 kts 19°
2026-04-29 22:36 33.40545 131.79802 37927 ft 519 kts 15°
2026-04-29 22:36 33.43882 131.81483 38162 ft 519 kts 16°
2026-04-29 22:37 33.47196 131.83197 38438 ft 518 kts 15°
2026-04-29 22:37 33.50505 131.84921 38748 ft 516 kts 15°
2026-04-29 22:37 33.53843 131.86646 38896 ft 517 kts 15°
2026-04-29 22:37 33.57121 131.88330 39089 ft 518 kts 15°
2026-04-29 22:38 33.60494 131.90071 39061 ft 523 kts 15°
2026-04-29 22:38 33.67265 131.93582 39070 ft 529 kts 15°
2026-04-29 22:39 33.74038 131.97093 39074 ft 532 kts 16°
2026-04-29 22:39 33.80735 132.00566 39068 ft 533 kts 16°
2026-04-29 22:40 33.87668 132.04163 39092 ft 532 kts 15°
2026-04-29 22:40 33.94478 132.07698 39070 ft 532 kts 15°
2026-04-29 22:41 34.01289 132.11243 39073 ft 535 kts 15°
2026-04-29 22:41 34.08041 132.14793 39089 ft 542 kts 18°
2026-04-29 22:42 34.14819 132.19130 39077 ft 552 kts 22°
2026-04-29 22:42 34.21674 132.23558 39117 ft 555 kts 21°
2026-04-29 22:43 34.28421 132.27920 39076 ft 557 kts 21°
2026-04-29 22:43 34.31771 132.30101 39360 ft 553 kts 21°
2026-04-29 22:43 34.35149 132.32307 39674 ft 550 kts 20°
2026-04-29 22:43 34.38571 132.34528 39891 ft 548 kts 20°
2026-04-29 22:44 34.41897 132.36690 40158 ft 545 kts 21°
2026-04-29 22:44 34.45215 132.38853 40412 ft 542 kts 20°
2026-04-29 22:44 34.48586 132.41046 40668 ft 539 kts 20°
2026-04-29 22:44 34.51902 132.43196 40926 ft 535 kts 20°
2026-04-29 22:45 34.55182 132.45328 41113 ft 533 kts 20°
2026-04-29 22:45 34.61799 132.49626 41054 ft 537 kts 20°
2026-04-29 22:46 34.68339 132.53903 41109 ft 539 kts 20°
2026-04-29 22:46 34.74892 132.58186 41091 ft 543 kts 20°
2026-04-29 22:47 34.81633 132.62581 41082 ft 547 kts 20°
2026-04-29 22:47 34.88329 132.66974 41102 ft 548 kts 21°
2026-04-29 22:48 34.95016 132.71372 41100 ft 546 kts 20°
2026-04-29 22:48 35.01756 132.75792 41094 ft 544 kts 20°
2026-04-29 22:49 35.08436 132.80193 41085 ft 545 kts 20°
2026-04-29 22:49 35.15104 132.84593 41113 ft 545 kts 21°
2026-04-29 22:50 35.21819 132.88995 41103 ft 546 kts 20°
2026-04-29 22:50 35.28543 132.93339 41105 ft 546 kts 20°
2026-04-29 22:51 35.35269 132.97729 41120 ft 546 kts 20°
2026-04-29 22:51 35.45269 133.04303 41123 ft 547 kts 22°
2026-04-29 22:52 35.51560 133.09782 41135 ft 560 kts 35°
2026-04-29 22:52 35.56868 133.16820 41126 ft 571 kts 51°
2026-04-29 22:53 35.61156 133.25082 41131 ft 574 kts 56°
2026-04-29 22:53 35.65448 133.33405 41131 ft 574 kts 55°
2026-04-29 22:54 35.69666 133.41667 41121 ft 574 kts 55°
2026-04-29 22:54 35.73924 133.50005 41128 ft 574 kts 54°
2026-04-29 22:55 35.78192 133.58398 41130 ft 574 kts 55°
2026-04-29 22:55 35.82430 133.66737 41107 ft 575 kts 56°
2026-04-29 22:56 35.86679 133.75101 41127 ft 574 kts 55°
2026-04-29 22:56 35.90910 133.83496 41133 ft 575 kts 55°
2026-04-29 22:57 35.95116 133.91844 41145 ft 576 kts 56°
2026-04-29 22:57 35.99340 134.00266 41138 ft 576 kts 55°
2026-04-29 22:58 36.03571 134.08696 41132 ft 575 kts 55°
2026-04-29 22:58 36.07746 134.17046 41138 ft 575 kts 55°
2026-04-29 22:59 36.11951 134.25472 41145 ft 575 kts 55°
2026-04-29 22:59 36.16148 134.33905 41140 ft 576 kts 55°
2026-04-29 23:00 36.20376 134.42404 41146 ft 576 kts 55°
2026-04-29 23:00 36.24551 134.50830 41118 ft 577 kts 55°